When you browse on this site, cookies collect data to enhance your experience and personalize the content and advertising you see.
Visit our Privacy Policy to learn more. By continuing to use the site, you agree to this use of cookies and data.
  • In Romania
  • List of Countries
  • For 7 days
  • Water Temperature
  • Satellite Maps
  • Weather Map
  • Weather Widgets
  • user-avatar
    Login

    Hourly Weather Galata

    Today, 18 April, Thursday

    Time Temperature Precipitation Wind Pressure Humidity
    00:00 +6°C° 0 mm 2 mps 760 mmHg 90%
    01:00 +6°C° 0 mm 2 mps 760 mmHg 90%
    02:00 +5°C° 0 mm 3 mps 760 mmHg 90%
    03:00 +5°C° 0 mm 3 mps 760 mmHg 90%
    04:00 +4°C° 0 mm 3 mps 760 mmHg 89%
    05:00 +4°C° 0 mm 3 mps 760 mmHg 89%
    06:00 +7°C° 0 mm 3 mps 760 mmHg 86%
    07:00 +7°C° 0 mm 4 mps 760 mmHg 82%
    08:00 +8°C° 0 mm 4 mps 760 mmHg 78%
    09:00 +8°C° 0.1 mm 4 mps 761 mmHg 81%
    10:00 +8°C° 0.1 mm 5 mps 761 mmHg 83%
    11:00 +8°C° 0.1 mm 5 mps 761 mmHg 86%
    12:00 +8°C° 0.2 mm 6 mps 761 mmHg 84%
    13:00 +8°C° 0.2 mm 6 mps 761 mmHg 83%
    14:00 +8°C° 0.2 mm 7 mps 761 mmHg 82%
    15:00 +8°C° 0.1 mm 7 mps 761 mmHg 79%
    16:00 +9°C° 0.1 mm 6 mps 762 mmHg 75%
    17:00 +9°C° 0.1 mm 6 mps 762 mmHg 72%
    18:00 +8°C° 0 mm 6 mps 762 mmHg 74%
    19:00 +7°C° 0 mm 5 mps 762 mmHg 76%
    20:00 +6°C° 0 mm 4 mps 762 mmHg 77%
    21:00 +6°C° 0 mm 4 mps 762 mmHg 78%
    22:00 +5°C° 0 mm 4 mps 762 mmHg 79%
    23:00 +4°C° 0 mm 4 mps 762 mmHg 79%

    Tomorrow, 19 April, Friday

    Time Temperature Precipitation Wind Pressure Humidity
    00:00 +4°C° 0 mm 4 mps 762 mmHg 81%
    01:00 +4°C° 0 mm 4 mps 762 mmHg 83%
    02:00 +4°C° 0 mm 4 mps 762 mmHg 84%
    03:00 +4°C° 0 mm 4 mps 762 mmHg 85%
    04:00 +4°C° 0 mm 4 mps 762 mmHg 87%
    05:00 +4°C° 0 mm 4 mps 761 mmHg 88%
    06:00 +5°C° 0 mm 4 mps 761 mmHg 82%
    07:00 +7°C° 0 mm 5 mps 761 mmHg 77%
    08:00 +8°C° 0 mm 5 mps 761 mmHg 72%
    09:00 +10°C° 0 mm 5 mps 761 mmHg 66%
    10:00 +12°C° 0 mm 4 mps 761 mmHg 61%
    11:00 +13°C° 0 mm 4 mps 761 mmHg 55%
    12:00 +13°C° 0.2 mm 3 mps 761 mmHg 60%
    13:00 +12°C° 0.2 mm 3 mps 760 mmHg 64%
    14:00 +12°C° 0.2 mm 3 mps 760 mmHg 69%
    15:00 +11°C° 0.7 mm 3 mps 760 mmHg 74%
    16:00 +10°C° 0.7 mm 2 mps 760 mmHg 79%
    17:00 +9°C° 0.7 mm 2 mps 760 mmHg 84%
    18:00 +8°C° 0.1 mm 2 mps 760 mmHg 85%
    19:00 +8°C° 0.1 mm 2 mps 761 mmHg 86%
    20:00 +7°C° 0.1 mm 3 mps 761 mmHg 87%
    21:00 +7°C° 0.3 mm 3 mps 761 mmHg 86%
    22:00 +7°C° 0.3 mm 3 mps 762 mmHg 85%
    23:00 +6°C° 0.3 mm 4 mps 762 mmHg 84%

    Day after tomorrow, 20 April, Saturday

    Time Temperature Precipitation Wind Pressure Humidity
    00:00 +5°C° 0 mm 4 mps 762 mmHg 84%
    01:00 +5°C° 0 mm 4 mps 762 mmHg 83%
    02:00 +5°C° 0 mm 4 mps 762 mmHg 83%
    03:00 +4°C° 0 mm 4 mps 762 mmHg 83%
    04:00 +3°C° 0 mm 5 mps 762 mmHg 83%
    05:00 +2°C° 0 mm 5 mps 762 mmHg 83%
    06:00 +5°C° 0 mm 5 mps 763 mmHg 80%
    07:00 +6°C° 0 mm 5 mps 763 mmHg 76%
    08:00 +7°C° 0 mm 6 mps 763 mmHg 73%
    09:00 +8°C° 0.1 mm 6 mps 763 mmHg 67%
    10:00 +9°C° 0.1 mm 6 mps 763 mmHg 62%
    11:00 +10°C° 0.1 mm 6 mps 763 mmHg 56%
    12:00 +10°C° 0.1 mm 6 mps 763 mmHg 54%
    13:00 +10°C° 0.1 mm 6 mps 763 mmHg 52%
    14:00 +11°C° 0.1 mm 6 mps 763 mmHg 50%
    15:00 +10°C° 0 mm 6 mps 763 mmHg 53%
    16:00 +10°C° 0 mm 5 mps 763 mmHg 55%
    17:00 +10°C° 0 mm 5 mps 763 mmHg 57%
    18:00 +8°C° 0 mm 4 mps 763 mmHg 61%
    19:00 +7°C° 0 mm 4 mps 763 mmHg 65%
    20:00 +5°C° 0 mm 3 mps 763 mmHg 69%
    21:00 +5°C° 0 mm 3 mps 763 mmHg 69%
    22:00 +5°C° 0 mm 3 mps 763 mmHg 69%
    23:00 +5°C° 0 mm 2 mps 763 mmHg 69%

    21 April, Sunday

    Time Temperature Precipitation Wind Pressure Humidity
    00:00 +4°C° 0 mm 3 mps 763 mmHg 70%
    01:00 +4°C° 0 mm 3 mps 763 mmHg 72%
    02:00 +4°C° 0 mm 3 mps 763 mmHg 73%
    03:00 +4°C° 0 mm 3 mps 763 mmHg 73%
    04:00 +4°C° 0 mm 3 mps 763 mmHg 73%
    05:00 +4°C° 0 mm 4 mps 763 mmHg 74%
    06:00 +5°C° 0 mm 3 mps 763 mmHg 70%
    07:00 +8°C° 0 mm 3 mps 763 mmHg 66%
    08:00 +9°C° 0 mm 3 mps 763 mmHg 63%
    09:00 +12°C° 0 mm 2 mps 763 mmHg 58%
    10:00 +13°C° 0 mm 2 mps 763 mmHg 53%
    11:00 +14°C° 0 mm 1 mps 763 mmHg 48%
    12:00 +14°C° 0 mm 2 mps 762 mmHg 49%
    13:00 +13°C° 0 mm 3 mps 762 mmHg 50%
    14:00 +13°C° 0 mm 3 mps 762 mmHg 51%
    15:00 +13°C° 0 mm 4 mps 762 mmHg 53%
    16:00 +12°C° 0 mm 4 mps 761 mmHg 56%
    17:00 +12°C° 0 mm 4 mps 761 mmHg 59%
    18:00 +11°C° 0 mm 3 mps 761 mmHg 62%
    19:00 +9°C° 0 mm 3 mps 762 mmHg 66%
    20:00 +8°C° 0 mm 2 mps 762 mmHg 69%
    21:00 +8°C° 0 mm 2 mps 762 mmHg 71%
    22:00 +7°C° 0 mm 2 mps 762 mmHg 72%
    23:00 +7°C° 0 mm 2 mps 762 mmHg 74%

    22 April, Monday

    Time Temperature Precipitation Wind Pressure Humidity
    00:00 +8°C° 0 mm 1 mps 762 mmHg 75%
    01:00 +7°C° 0 mm 1 mps 761 mmHg 77%
    02:00 +7°C° 0 mm 1 mps 761 mmHg 78%
    03:00 +7°C° 0 mm 1 mps 761 mmHg 78%
    04:00 +7°C° 0 mm 1 mps 761 mmHg 77%
    05:00 +7°C° 0 mm 1 mps 761 mmHg 76%
    06:00 +8°C° 0 mm 2 mps 762 mmHg 73%
    07:00 +9°C° 0 mm 3 mps 762 mmHg 70%
    08:00 +10°C° 0 mm 3 mps 762 mmHg 67%
    09:00 +11°C° 0 mm 4 mps 762 mmHg 64%
    10:00 +12°C° 0 mm 4 mps 763 mmHg 62%
    11:00 +13°C° 0 mm 4 mps 763 mmHg 59%
    12:00 +13°C° 0 mm 4 mps 763 mmHg 57%
    13:00 +13°C° 0 mm 4 mps 762 mmHg 56%
    14:00 +13°C° 0 mm 4 mps 762 mmHg 54%
    15:00 +12°C° 0 mm 4 mps 762 mmHg 55%
    16:00 +12°C° 0 mm 4 mps 762 mmHg 56%
    17:00 +11°C° 0 mm 4 mps 762 mmHg 57%
    18:00 +10°C° 0 mm 3 mps 763 mmHg 63%
    19:00 +9°C° 0 mm 3 mps 763 mmHg 68%
    20:00 +7°C° 0 mm 3 mps 763 mmHg 74%
    21:00 +7°C° 0 mm 3 mps 763 mmHg 76%
    22:00 +7°C° 0 mm 2 mps 763 mmHg 79%
    23:00 +6°C° 0 mm 2 mps 763 mmHg 81%

    23 April, Tuesday

    Time Temperature Precipitation Wind Pressure Humidity
    00:00 +6°C° 0 mm 2 mps 763 mmHg 83%
    01:00 +6°C° 0 mm 2 mps 763 mmHg 84%
    02:00 +6°C° 0 mm 2 mps 763 mmHg 86%
    03:00 +6°C° 0 mm 2 mps 763 mmHg 86%
    04:00 +6°C° 0 mm 2 mps 763 mmHg 87%
    05:00 +6°C° 0 mm 2 mps 763 mmHg 87%
    06:00 +8°C° 0 mm 3 mps 764 mmHg 82%
    07:00 +9°C° 0 mm 3 mps 764 mmHg 77%
    08:00 +10°C° 0 mm 4 mps 764 mmHg 71%
    09:00 +11°C° 0 mm 4 mps 764 mmHg 69%
    10:00 +10°C° 0 mm 5 mps 764 mmHg 67%
    11:00 +12°C° 0 mm 5 mps 764 mmHg 64%
    12:00 +12°C° 0 mm 5 mps 764 mmHg 63%
    13:00 +13°C° 0 mm 5 mps 763 mmHg 62%
    14:00 +13°C° 0 mm 6 mps 763 mmHg 61%
    15:00 +11°C° 0 mm 6 mps 763 mmHg 63%
    16:00 +11°C° 0 mm 6 mps 763 mmHg 64%
    17:00 +11°C° 0 mm 6 mps 762 mmHg 66%
    18:00 +10°C° 0 mm 5 mps 762 mmHg 73%
    19:00 +9°C° 0 mm 5 mps 762 mmHg 79%
    20:00 +8°C° 0 mm 4 mps 763 mmHg 86%
    21:00 +8°C° 0 mm 4 mps 762 mmHg 89%
    22:00 +8°C° 0 mm 4 mps 762 mmHg 92%
    23:00 +8°C° 0 mm 4 mps 762 mmHg 95%
    Show more